This is the latest recevied weather packets stored in our database for station/object DL9NEE-10. If no packets are shown the sender has not sent any weather packets the latest 10 day(s).
| Time | Temp. | Humidity | Pressure | Rain* | Wind** | Luminosity | Snow |
|---|---|---|---|---|---|---|---|
| 1777887558 | 24.44° C | 37% | 1016 hPa | - | - | - | - |
| 1777886658 | 24.44° C | 38% | 1016 hPa | - | - | - | - |
| 1777885758 | 23.89° C | 38% | 1016.3 hPa | - | - | - | - |
| 1777884858 | 23.33° C | 39% | 1016.3 hPa | - | - | - | - |
| 1777883957 | 22.78° C | 39% | 1016.3 hPa | - | - | - | - |
| 1777883057 | 22.22° C | 40% | 1016.3 hPa | - | - | - | - |
| 1777882157 | 21.67° C | 41% | 1016.4 hPa | - | - | - | - |
| 1777881257 | 20.56° C | 43% | 1016.4 hPa | - | - | - | - |
| 1777880357 | 20° C | 45% | 1016.5 hPa | - | - | - | - |
| 1777879457 | 19.44° C | 46% | 1016.5 hPa | - | - | - | - |
| 1777878557 | 18.89° C | 48% | 1016.4 hPa | - | - | - | - |
| 1777877656 | 18.89° C | 48% | 1016.4 hPa | - | - | - | - |
| 1777876756 | 18.33° C | 50% | 1016.5 hPa | - | - | - | - |
| 1777875856 | 17.78° C | 51% | 1016.4 hPa | - | - | - | - |
| 1777874956 | 17.22° C | 51% | 1016.4 hPa | - | - | - | - |
| 1777874056 | 16.67° C | 53% | 1016.4 hPa | - | - | - | - |
| 1777873156 | 16.11° C | 52% | 1016.4 hPa | - | - | - | - |
| 1777872256 | 16.11° C | 53% | 1016.3 hPa | - | - | - | - |
| 1777871356 | 15.56° C | 53% | 1016.2 hPa | - | - | - | - |
| 1777870455 | 15.56° C | 53% | 1016.1 hPa | - | - | - | - |
| 1777869555 | 15.56° C | 53% | 1015.9 hPa | - | - | - | - |
| 1777868655 | 15.56° C | 53% | 1016 hPa | - | - | - | - |
| 1777867755 | 16.11° C | 52% | 1015.9 hPa | - | - | - | - |
| 1777866855 | 16.11° C | 51% | 1015.9 hPa | - | - | - | - |
| 1777865955 | 16.11° C | 50% | 1015.9 hPa | - | - | - | - |
* Rain since midnight (hover to see other rain measurements)
** Current wind speed in m/s (hover to see current wind gust speed)